"read_dt","SO2 (ppb)","flags","PMT voltage (V)","lamp voltage (V)","lamp intensity (Hz)","internal temp (C)","react chamber temp (C)","sample flow (l/min)","pres (mmHg)","SO2 bkg (ppb)","SO2 coefficient"
2016-09-23 00:00:00,1647E-3,5C000000,-0724,0825,12283,025.4,045.4,0.455,733.9,01.19,0.508
2016-09-23 00:01:00,1657E-3,5C000000,-0724,0826,12117,025.4,045.4,0.455,733.8,01.19,0.508
2016-09-23 00:02:00,1669E-3,5C000000,-0724,0825,12348,025.4,045.4,0.455,733.8,01.19,0.508
2016-09-23 00:03:00,1589E-3,5C000000,-0724,0826,12445,025.4,045.4,0.455,733.8,01.19,0.508
2016-09-23 00:04:00,1634E-3,5C000000,-0724,0826,12316,025.3,045.4,0.455,733.8,01.19,0.508
2016-09-23 00:05:00,1472E-3,5C000000,-0724,0826,12240,025.4,045.4,0.455,733.8,01.19,0.508
2016-09-23 00:06:00,1626E-3,5C000000,-0724,0826,12166,025.4,045.4,0.455,733.8,01.19,0.508
2016-09-23 00:07:00,1533E-3,5C000000,-0724,0826,12333,025.4,045.4,0.455,733.8,01.19,0.508
2016-09-23 00:08:00,1576E-3,5C000000,-0724,0826,12172,025.3,045.4,0.455,733.8,01.19,0.508
2016-09-23 00:09:00,1583E-3,5C000000,-0724,0826,12237,025.4,045.4,0.455,733.7,01.19,0.508
2016-09-23 00:10:00,1501E-3,5C000000,-0724,0826,12249,025.3,045.4,0.455,733.8,01.19,0.508
2016-09-23 00:11:00,1519E-3,5C000000,-0724,0826,12163,025.3,045.4,0.455,733.8,01.19,0.508
2016-09-23 00:12:00,1607E-3,5C000000,-0724,0826,12298,025.3,045.4,0.455,733.8,01.19,0.508
2016-09-23 00:13:00,1710E-3,5C000000,-0724,0825,12207,025.3,045.4,0.455,733.7,01.19,0.508
2016-09-23 00:14:00,1652E-3,5C000000,-0724,0825,12202,025.3,045.4,0.455,733.8,01.19,0.508
2016-09-23 00:15:00,1490E-3,5C000000,-0724,0826,12329,025.3,045.4,0.455,733.8,01.19,0.508
2016-09-23 00:16:00,1538E-3,5C000000,-0724,0826,12343,025.3,045.4,0.455,733.8,01.19,0.508
2016-09-23 00:17:00,1456E-3,5C000000,-0724,0826,12286,025.3,045.4,0.455,733.8,01.19,0.508
2016-09-23 00:18:00,1571E-3,5C000000,-0724,0826,12299,025.3,045.4,0.455,733.8,01.19,0.508
2016-09-23 00:19:00,1706E-3,5C000000,-0724,0826,12110,025.3,045.4,0.455,733.8,01.19,0.508
2016-09-23 00:20:00,1541E-3,5C000000,-0724,0826,12126,025.3,045.4,0.456,733.8,01.19,0.508
2016-09-23 00:21:00,1546E-3,5C000000,-0724,0826,12243,025.3,045.4,0.455,733.8,01.19,0.508
2016-09-23 00:22:00,1491E-3,5C000000,-0724,0826,12268,025.3,045.4,0.455,733.8,01.19,0.508
2016-09-23 00:23:00,1581E-3,5C000000,-0724,0826,12318,025.3,045.4,0.456,733.7,01.19,0.508
2016-09-23 00:24:00,1566E-3,5C000000,-0724,0826,12373,025.3,045.4,0.455,733.7,01.19,0.508
2016-09-23 00:25:00,1642E-3,5C000000,-0724,0826,12324,025.3,045.4,0.455,733.7,01.19,0.508
2016-09-23 00:26:00,1573E-3,5C000000,-0724,0826,12171,025.3,045.4,0.455,733.7,01.19,0.508
2016-09-23 00:27:00,1699E-3,5C000000,-0724,0826,12129,025.3,045.4,0.455,733.6,01.19,0.508
2016-09-23 00:28:00,1552E-3,5C000000,-0724,0826,12280,025.3,045.4,0.455,733.7,01.19,0.508
2016-09-23 00:29:00,1595E-3,5C000000,-0724,0825,12143,025.3,045.4,0.456,733.7,01.19,0.508
2016-09-23 00:30:00,1551E-3,5C000000,-0724,0825,12205,025.3,045.4,0.455,733.7,01.19,0.508
2016-09-23 00:31:00,1454E-3,5C000000,-0724,0826,12453,025.3,045.4,0.455,733.7,01.19,0.508
2016-09-23 00:32:00,1648E-3,5C000000,-0724,0826,12215,025.3,045.4,0.455,733.7,01.19,0.508
2016-09-23 00:33:00,1553E-3,5C000000,-0724,0826,12307,025.3,045.4,0.455,733.7,01.19,0.508
2016-09-23 00:34:00,1548E-3,5C000000,-0724,0827,12225,025.3,045.4,0.455,733.7,01.19,0.508
2016-09-23 00:35:00,1712E-3,5C000000,-0724,0825,12376,025.3,045.4,0.455,733.7,01.19,0.508
2016-09-23 00:36:00,1638E-3,5C000000,-0724,0826,12268,025.3,045.4,0.455,733.7,01.19,0.508
2016-09-23 00:37:00,1532E-3,5C000000,-0724,0826,12121,025.3,045.4,0.455,733.7,01.19,0.508
2016-09-23 00:38:00,1573E-3,5C000000,-0724,0825,12260,025.3,045.4,0.455,733.7,01.19,0.508
2016-09-23 00:39:00,1491E-3,5C000000,-0724,0826,12274,025.3,045.4,0.455,733.8,01.19,0.508
2016-09-23 00:40:00,1581E-3,5C000000,-0724,0826,12268,025.3,045.4,0.455,733.7,01.19,0.508
2016-09-23 00:41:00,1632E-3,5C000000,-0724,0826,12179,025.3,045.4,0.455,733.6,01.19,0.508
2016-09-23 00:42:00,1558E-3,5C000000,-0724,0826,12220,025.3,045.4,0.455,733.6,01.19,0.508
2016-09-23 00:43:00,1663E-3,5C000000,-0724,0826,12305,025.3,045.4,0.455,733.6,01.19,0.508
2016-09-23 00:44:00,1574E-3,5C000000,-0724,0826,12411,025.3,045.4,0.455,733.6,01.19,0.508
2016-09-23 00:45:00,1554E-3,5C000000,-0724,0826,12304,025.3,045.4,0.455,733.7,01.19,0.508
2016-09-23 00:46:00,1623E-3,5C000000,-0724,0826,12255,025.3,045.4,0.455,733.8,01.19,0.508
2016-09-23 00:47:00,1499E-3,5C000000,-0724,0826,12343,025.3,045.4,0.455,733.6,01.19,0.508
2016-09-23 00:48:00,1672E-3,5C000000,-0724,0826,12240,025.3,045.4,0.455,733.7,01.19,0.508
2016-09-23 00:49:00,1666E-3,5C000000,-0724,0825,12141,025.3,045.4,0.455,733.7,01.19,0.508
2016-09-23 00:50:00,1553E-3,5C000000,-0724,0826,12370,025.3,045.4,0.455,733.7,01.19,0.508
2016-09-23 00:51:00,1605E-3,5C000000,-0724,0827,12283,025.3,045.4,0.455,733.7,01.19,0.508
2016-09-23 00:52:00,1622E-3,5C000000,-0724,0825,12265,025.4,045.4,0.455,733.7,01.19,0.508
2016-09-23 00:53:00,1629E-3,5C000000,-0724,0826,12252,025.4,045.4,0.455,733.7,01.19,0.508
2016-09-23 00:54:00,1570E-3,5C000000,-0724,0826,12258,025.4,045.4,0.455,733.8,01.19,0.508
2016-09-23 00:55:00,1626E-3,5C000000,-0724,0825,12319,025.4,045.4,0.455,733.8,01.19,0.508
2016-09-23 00:56:00,1527E-3,5C000000,-0724,0825,12263,025.4,045.4,0.455,733.7,01.19,0.508
2016-09-23 00:57:00,1700E-3,5C000000,-0724,0826,12152,025.4,045.4,0.455,733.8,01.19,0.508
2016-09-23 00:58:00,1524E-3,5C000000,-0724,0826,12206,025.4,045.4,0.455,733.8,01.19,0.508
2016-09-23 00:59:00,1668E-3,5C000000,-0724,0825,12257,025.4,045.4,0.455,733.8,01.19,0.508
2016-09-23 01:00:00,1502E-3,5C000000,-0724,0826,12209,025.4,045.4,0.455,733.7,01.19,0.508
2016-09-23 01:01:00,1623E-3,5C000000,-0724,0825,12280,025.5,045.4,0.455,733.8,01.19,0.508
2016-09-23 01:02:00,1672E-3,5C000000,-0724,0825,12127,025.5,045.4,0.455,733.7,01.19,0.508
2016-09-23 01:03:00,1590E-3,5C000000,-0724,0826,12266,025.5,045.4,0.455,733.6,01.19,0.508
2016-09-23 01:04:00,1612E-3,5C000000,-0724,0826,12213,025.5,045.4,0.455,733.7,01.19,0.508
2016-09-23 01:05:00,1542E-3,5C000000,-0724,0826,12147,025.5,045.4,0.455,733.6,01.19,0.508
2016-09-23 01:06:00,1625E-3,5C000000,-0724,0825,12248,025.5,045.4,0.455,733.7,01.19,0.508
2016-09-23 01:07:00,1482E-3,5C000000,-0724,0826,12321,025.5,045.4,0.455,733.6,01.19,0.508
2016-09-23 01:08:00,1605E-3,5C000000,-0724,0826,12279,025.5,045.4,0.455,733.7,01.19,0.508
2016-09-23 01:09:00,1543E-3,5C000000,-0724,0826,12312,025.6,045.4,0.455,733.6,01.19,0.508
2016-09-23 01:10:00,1644E-3,5C000000,-0724,0825,12283,025.6,045.4,0.455,733.7,01.19,0.508
2016-09-23 01:11:00,1667E-3,5C000000,-0724,0825,12258,025.6,045.4,0.455,733.6,01.19,0.508
2016-09-23 01:12:00,1555E-3,5C000000,-0724,0826,12242,025.6,045.4,0.454,733.6,01.19,0.508
2016-09-23 01:13:00,1483E-3,5C000000,-0724,0825,12271,025.6,045.4,0.455,733.7,01.19,0.508
2016-09-23 01:14:00,1556E-3,5C000000,-0724,0826,12183,025.6,045.4,0.455,733.6,01.19,0.508
2016-09-23 01:15:00,1525E-3,5C000000,-0724,0826,12119,025.6,045.4,0.455,733.6,01.19,0.508
2016-09-23 01:16:00,1559E-3,5C000000,-0724,0826,12218,025.6,045.4,0.454,733.6,01.19,0.508
2016-09-23 01:17:00,1568E-3,5C000000,-0724,0825,12187,025.6,045.4,0.455,733.6,01.19,0.508
2016-09-23 01:18:00,1611E-3,5C000000,-0724,0826,12085,025.7,045.4,0.455,733.6,01.19,0.508
2016-09-23 01:19:00,1497E-3,5C000000,-0724,0826,12272,025.7,045.4,0.455,733.6,01.19,0.508
2016-09-23 01:20:00,1790E-3,5C000000,-0724,0826,12200,025.7,045.4,0.454,733.6,01.19,0.508
2016-09-23 01:21:00,1618E-3,5C000000,-0724,0825,12234,025.7,045.4,0.455,733.6,01.19,0.508
2016-09-23 01:22:00,1550E-3,5C000000,-0724,0825,12228,025.7,045.4,0.455,733.6,01.19,0.508
2016-09-23 01:23:00,1696E-3,5C000000,-0724,0826,12309,025.7,045.4,0.455,733.6,01.19,0.508
2016-09-23 01:24:00,1455E-3,5C000000,-0724,0825,12264,025.7,045.4,0.454,733.6,01.19,0.508
2016-09-23 01:25:00,1594E-3,5C000000,-0724,0827,12349,025.8,045.4,0.455,733.6,01.19,0.508
2016-09-23 01:26:00,1593E-3,5C000000,-0724,0825,12194,025.8,045.4,0.455,733.5,01.19,0.508
2016-09-23 01:27:00,1629E-3,5C000000,-0724,0826,12213,025.8,045.4,0.454,733.6,01.19,0.508
2016-09-23 01:28:00,1619E-3,5C000000,-0724,0825,12293,025.8,045.4,0.454,733.6,01.19,0.508
2016-09-23 01:29:00,1649E-3,5C000000,-0724,0825,12148,025.8,045.4,0.455,733.5,01.19,0.508
2016-09-23 01:30:00,1572E-3,5C000000,-0724,0826,12251,025.8,045.4,0.455,733.5,01.19,0.508
2016-09-23 01:31:00,1571E-3,5C000000,-0724,0826,12359,025.8,045.4,0.454,733.5,01.19,0.508
2016-09-23 01:32:00,1608E-3,5C000000,-0724,0825,12213,025.8,045.4,0.454,733.6,01.19,0.508
2016-09-23 01:33:00,1554E-3,5C000000,-0724,0827,12413,025.9,045.4,0.455,733.6,01.19,0.508
2016-09-23 01:34:00,1655E-3,5C000000,-0724,0828,12374,025.9,045.4,0.455,733.6,01.19,0.508
2016-09-23 01:35:00,1649E-3,5C000000,-0724,0827,12280,025.9,045.4,0.454,733.6,01.19,0.508
2016-09-23 01:36:00,1568E-3,5C000000,-0724,0826,12226,025.9,045.4,0.455,733.5,01.19,0.508
2016-09-23 01:37:00,1613E-3,5C000000,-0724,0826,12285,025.9,045.4,0.455,733.5,01.19,0.508
2016-09-23 01:38:00,1599E-3,5C000000,-0724,0826,12267,025.9,045.4,0.454,733.5,01.19,0.508
2016-09-23 01:39:00,1581E-3,5C000000,-0724,0825,12262,025.9,045.4,0.454,733.6,01.19,0.508
2016-09-23 01:40:00,1507E-3,5C000000,-0724,0825,12147,025.9,045.4,0.455,733.6,01.19,0.508
2016-09-23 01:41:00,1499E-3,5C000000,-0724,0825,12174,026.0,045.4,0.454,733.5,01.19,0.508
2016-09-23 01:42:00,1532E-3,5C000000,-0724,0826,12254,026.0,045.4,0.454,733.5,01.19,0.508
2016-09-23 01:43:00,1612E-3,5C000000,-0724,0825,12194,026.0,045.4,0.454,733.5,01.19,0.508
2016-09-23 01:44:00,1569E-3,5C000000,-0724,0825,12332,026.0,045.4,0.455,733.6,01.19,0.508
2016-09-23 01:45:00,1666E-3,5C000000,-0724,0826,12293,026.0,045.4,0.454,733.5,01.19,0.508
2016-09-23 01:46:00,1563E-3,5C000000,-0724,0826,12176,026.0,045.4,0.454,733.5,01.19,0.508
2016-09-23 01:47:00,1751E-3,5C000000,-0724,0825,12123,026.0,045.4,0.455,733.5,01.19,0.508
2016-09-23 01:48:00,1623E-3,5C000000,-0724,0826,12406,026.0,045.4,0.454,733.5,01.19,0.508
2016-09-23 01:49:00,1632E-3,5C000000,-0724,0826,12246,026.1,045.4,0.454,733.5,01.19,0.508
2016-09-23 01:50:00,1708E-3,5C000000,-0724,0825,12096,026.1,045.4,0.454,733.6,01.19,0.508
2016-09-23 01:51:00,1643E-3,5C000000,-0724,0827,12168,026.1,045.4,0.455,733.6,01.19,0.508
2016-09-23 01:52:00,1610E-3,5C000000,-0724,0826,12144,026.1,045.4,0.454,733.5,01.19,0.508
2016-09-23 01:53:00,1608E-3,5C000000,-0724,0826,12309,026.1,045.4,0.454,733.5,01.19,0.508
2016-09-23 01:54:00,1608E-3,5C000000,-0724,0826,12175,026.1,045.4,0.454,733.5,01.19,0.508
2016-09-23 01:55:00,1556E-3,5C000000,-0724,0826,12268,026.1,045.4,0.454,733.5,01.19,0.508
2016-09-23 01:56:00,1644E-3,5C000000,-0724,0826,12055,026.1,045.4,0.454,733.5,01.19,0.508
2016-09-23 01:57:00,1625E-3,5C000000,-0724,0826,12245,026.1,045.4,0.454,733.5,01.19,0.508
2016-09-23 01:58:00,1617E-3,5C000000,-0724,0826,12334,026.1,045.4,0.454,733.5,01.19,0.508
2016-09-23 01:59:00,1569E-3,5C000000,-0724,0826,12243,026.2,045.4,0.454,733.5,01.19,0.508
2016-09-23 02:00:00,1566E-3,5C000000,-0724,0825,12329,026.2,045.4,0.454,733.5,01.19,0.508
2016-09-23 02:01:00,1537E-3,5C000000,-0724,0826,12248,026.2,045.4,0.454,733.6,01.19,0.508
2016-09-23 02:02:00,1449E-3,5C000000,-0724,0826,12304,026.2,045.4,0.454,733.6,01.19,0.508
2016-09-23 02:03:00,1598E-3,5C000000,-0724,0826,12330,026.2,045.4,0.454,733.6,01.19,0.508
2016-09-23 02:04:00,1555E-3,5C000000,-0724,0826,12172,026.2,045.4,0.454,733.5,01.19,0.508
2016-09-23 02:05:00,1554E-3,5C000000,-0724,0826,11961,026.2,045.4,0.454,733.5,01.19,0.508
2016-09-23 02:06:00,1547E-3,5C000000,-0724,0826,12098,026.3,045.4,0.454,733.5,01.19,0.508
2016-09-23 02:07:00,1553E-3,5C000000,-0724,0826,12217,026.3,045.4,0.454,733.5,01.19,0.508
2016-09-23 02:08:00,1634E-3,5C000000,-0724,0826,12204,026.3,045.4,0.454,733.5,01.19,0.508
2016-09-23 02:09:00,1561E-3,5C000000,-0724,0826,12119,026.3,045.4,0.454,733.5,01.19,0.508
2016-09-23 02:10:00,1460E-3,5C000000,-0724,0826,12379,026.3,045.4,0.454,733.5,01.19,0.508
2016-09-23 02:11:00,1542E-3,5C000000,-0724,0826,12226,026.3,045.4,0.454,733.5,01.19,0.508
2016-09-23 02:12:00,1604E-3,5C000000,-0724,0827,12132,026.3,045.4,0.454,733.5,01.19,0.508
2016-09-23 02:13:00,1493E-3,5C000000,-0724,0826,12293,026.4,045.4,0.454,733.5,01.19,0.508
2016-09-23 02:14:00,1568E-3,5C000000,-0724,0825,12270,026.4,045.4,0.453,733.5,01.19,0.508
2016-09-23 02:15:00,1523E-3,5C000000,-0724,0825,12248,026.4,045.4,0.454,733.5,01.19,0.508
2016-09-23 02:16:00,1556E-3,5C000000,-0724,0825,12262,026.4,045.4,0.454,733.5,01.19,0.508
2016-09-23 02:17:00,1576E-3,5C000000,-0724,0827,12234,026.4,045.4,0.453,733.5,01.19,0.508
2016-09-23 02:18:00,1635E-3,5C000000,-0724,0825,12173,026.4,045.4,0.454,733.5,01.19,0.508
2016-09-23 02:19:00,1583E-3,5C000000,-0724,0826,12328,026.4,045.4,0.454,733.5,01.19,0.508
2016-09-23 02:20:00,1507E-3,5C000000,-0724,0825,12227,026.4,045.4,0.453,733.5,01.19,0.508
2016-09-23 02:21:00,1495E-3,5C000000,-0724,0826,12212,026.4,045.4,0.454,733.5,01.19,0.508
2016-09-23 02:22:00,1556E-3,5C000000,-0724,0825,12246,026.4,045.4,0.454,733.4,01.19,0.508
2016-09-23 02:23:00,1395E-3,5C000000,-0724,0827,12270,026.5,045.4,0.454,733.5,01.19,0.508
2016-09-23 02:24:00,1584E-3,5C000000,-0724,0825,12258,026.5,045.4,0.453,733.4,01.19,0.508
2016-09-23 02:25:00,1506E-3,5C000000,-0724,0826,12063,026.5,045.4,0.454,733.5,01.19,0.508
2016-09-23 02:26:00,1605E-3,5C000000,-0724,0826,12277,026.5,045.4,0.454,733.4,01.19,0.508
2016-09-23 02:27:00,1619E-3,5C000000,-0724,0826,12287,026.5,045.4,0.453,733.5,01.19,0.508
2016-09-23 02:28:00,1615E-3,5C000000,-0724,0825,12139,026.5,045.4,0.454,733.5,01.19,0.508
2016-09-23 02:29:00,1489E-3,5C000000,-0724,0826,12320,026.5,045.4,0.454,733.5,01.19,0.508
2016-09-23 02:30:00,1454E-3,5C000000,-0724,0826,12206,026.5,045.4,0.453,733.5,01.19,0.508
2016-09-23 02:31:00,1648E-3,5C000000,-0724,0827,12299,026.5,045.4,0.454,733.5,01.19,0.508
2016-09-23 02:32:00,1602E-3,5C000000,-0724,0826,12239,026.6,045.4,0.454,733.5,01.19,0.508
2016-09-23 02:33:00,1656E-3,5C000000,-0724,0826,12235,026.6,045.4,0.453,733.4,01.19,0.508
2016-09-23 02:34:00,1582E-3,5C000000,-0724,0827,12134,026.6,045.4,0.454,733.4,01.19,0.508
2016-09-23 02:35:00,1630E-3,5C000000,-0724,0826,12283,026.6,045.4,0.454,733.4,01.19,0.508
2016-09-23 02:36:00,1702E-3,5C000000,-0724,0826,12199,026.6,045.4,0.453,733.4,01.19,0.508
2016-09-23 02:37:00,1565E-3,5C000000,-0724,0826,12294,026.6,045.4,0.454,733.4,01.19,0.508
2016-09-23 02:38:00,1594E-3,5C000000,-0724,0826,12257,026.6,045.4,0.454,733.4,01.19,0.508
2016-09-23 02:39:00,1511E-3,5C000000,-0724,0826,12293,026.6,045.4,0.453,733.5,01.19,0.508
2016-09-23 02:40:00,1601E-3,5C000000,-0724,0827,12056,026.6,045.4,0.454,733.4,01.19,0.508
2016-09-23 02:41:00,1704E-3,5C000000,-0724,0827,12257,026.6,045.4,0.454,733.4,01.19,0.508
2016-09-23 02:42:00,1763E-3,5C000000,-0724,0826,12240,026.7,045.4,0.453,733.4,01.19,0.508
2016-09-23 02:43:00,1587E-3,5C000000,-0724,0826,12159,026.7,045.4,0.454,733.4,01.19,0.508
2016-09-23 02:44:00,1474E-3,5C000000,-0724,0827,12163,026.7,045.4,0.453,733.4,01.19,0.508
2016-09-23 02:45:00,1630E-3,5C000000,-0724,0826,12210,026.7,045.4,0.453,733.4,01.19,0.508
2016-09-23 02:46:00,1599E-3,5C000000,-0724,0827,11059,026.7,045.4,0.453,733.4,01.19,0.508
2016-09-23 02:47:00,1606E-3,5C000000,-0724,0826,12060,026.7,045.4,0.454,733.4,01.19,0.508
2016-09-23 02:48:00,1540E-3,5C000000,-0724,0826,12327,026.7,045.4,0.453,733.4,01.19,0.508
2016-09-23 02:49:00,1575E-3,5C000000,-0724,0825,12138,026.7,045.4,0.453,733.4,01.19,0.508
2016-09-23 02:50:00,1645E-3,5C000000,-0724,0826,12185,026.8,045.4,0.454,733.4,01.19,0.508
2016-09-23 02:51:00,1547E-3,5C000000,-0724,0827,12134,026.8,045.4,0.453,733.3,01.19,0.508
2016-09-23 02:52:00,1592E-3,5C000000,-0724,0827,12304,026.8,045.4,0.453,733.3,01.19,0.508
2016-09-23 02:53:00,1462E-3,5C000000,-0724,0826,12075,026.8,045.4,0.453,733.3,01.19,0.508
2016-09-23 02:54:00,1623E-3,5C000000,-0724,0826,12358,026.8,045.4,0.453,733.4,01.19,0.508
2016-09-23 02:55:00,1731E-3,5C000000,-0724,0826,12351,026.8,045.4,0.453,733.3,01.19,0.508
2016-09-23 02:56:00,1691E-3,5C000000,-0724,0826,12289,026.8,045.4,0.453,733.3,01.19,0.508
2016-09-23 02:57:00,1542E-3,5C000000,-0724,0826,12204,026.8,045.4,0.453,733.3,01.19,0.508
2016-09-23 02:58:00,1641E-3,5C000000,-0724,0826,12102,026.8,045.4,0.453,733.3,01.19,0.508
2016-09-23 02:59:00,1640E-3,5C000000,-0724,0826,12182,026.8,045.4,0.453,733.3,01.19,0.508
2016-09-23 03:00:00,1487E-3,5C000000,-0724,0827,12206,026.9,045.4,0.453,733.3,01.19,0.508
2016-09-23 03:01:00,1607E-3,5C000000,-0724,0826,12161,026.9,045.4,0.453,733.3,01.19,0.508
2016-09-23 03:02:00,1582E-3,5C000000,-0724,0827,12170,026.9,045.4,0.453,733.2,01.19,0.508
2016-09-23 03:03:00,1737E-3,5C000000,-0724,0826,12130,026.9,045.4,0.453,733.3,01.19,0.508
2016-09-23 03:04:00,1662E-3,5C000000,-0724,0826,12296,026.9,045.4,0.453,733.2,01.19,0.508
2016-09-23 03:05:00,1509E-3,5C000000,-0724,0826,12109,026.9,045.4,0.453,733.2,01.19,0.508
2016-09-23 03:06:00,1588E-3,5C000000,-0724,0826,12178,026.9,045.4,0.453,733.3,01.19,0.508
2016-09-23 03:07:00,1564E-3,5C000000,-0724,0826,12207,026.9,045.4,0.453,733.2,01.19,0.508
2016-09-23 03:08:00,1568E-3,5C000000,-0724,0826,12124,026.9,045.4,0.453,733.3,01.19,0.508
2016-09-23 03:09:00,1497E-3,5C000000,-0724,0827,12326,026.9,045.4,0.453,733.2,01.19,0.508
2016-09-23 03:10:00,1621E-3,5C000000,-0724,0827,12310,027.0,045.4,0.453,733.3,01.19,0.508
2016-09-23 03:11:00,1609E-3,5C000000,-0724,0827,12326,027.0,045.4,0.453,733.2,01.19,0.508
2016-09-23 03:12:00,1433E-3,5C000000,-0724,0826,12288,027.0,045.4,0.453,733.3,01.19,0.508
2016-09-23 03:13:00,1533E-3,5C000000,-0724,0826,12278,027.0,045.4,0.453,733.2,01.19,0.508
2016-09-23 03:14:00,1561E-3,5C000000,-0724,0825,12253,027.0,045.4,0.453,733.3,01.19,0.508
2016-09-23 03:15:00,1547E-3,5C000000,-0724,0827,12203,027.0,045.4,0.453,733.3,01.19,0.508
2016-09-23 03:16:00,1463E-3,5C000000,-0724,0827,12194,027.0,045.4,0.453,733.3,01.19,0.508
2016-09-23 03:17:00,1606E-3,5C000000,-0724,0826,12199,027.0,045.4,0.453,733.2,01.19,0.508
2016-09-23 03:18:00,1570E-3,5C000000,-0724,0826,12166,027.0,045.4,0.453,733.3,01.19,0.508
2016-09-23 03:19:00,1524E-3,5C000000,-0724,0826,12193,027.1,045.4,0.453,733.3,01.19,0.508
2016-09-23 03:20:00,1574E-3,5C000000,-0724,0826,12268,027.1,045.4,0.453,733.3,01.19,0.508
2016-09-23 03:21:00,1525E-3,5C000000,-0724,0826,12157,027.1,045.4,0.452,733.3,01.19,0.508
2016-09-23 03:22:00,1577E-3,5C000000,-0724,0826,12097,027.1,045.4,0.453,733.2,01.19,0.508
2016-09-23 03:23:00,1632E-3,5C000000,-0724,0826,12375,027.1,045.4,0.453,733.3,01.19,0.508
2016-09-23 03:24:00,1703E-3,5C000000,-0724,0826,12261,027.1,045.4,0.453,733.3,01.19,0.508
2016-09-23 03:25:00,1538E-3,5C000000,-0724,0826,12331,027.1,045.4,0.453,733.2,01.19,0.508
2016-09-23 03:26:00,1748E-3,5C000000,-0724,0826,12178,027.1,045.4,0.452,733.3,01.19,0.508
2016-09-23 03:27:00,1685E-3,5C000000,-0724,0826,12144,027.1,045.4,0.453,733.2,01.19,0.508
2016-09-23 03:28:00,1570E-3,5C000000,-0724,0826,12144,027.2,045.4,0.452,733.3,01.19,0.508
2016-09-23 03:29:00,1511E-3,5C000000,-0724,0825,12189,027.2,045.4,0.452,733.2,01.19,0.508
2016-09-23 03:30:00,1638E-3,5C000000,-0724,0826,12282,027.2,045.4,0.453,733.3,01.19,0.508
2016-09-23 03:31:00,1596E-3,5C000000,-0724,0827,12205,027.2,045.4,0.452,733.3,01.19,0.508
2016-09-23 03:32:00,1593E-3,5C000000,-0724,0826,12189,027.2,045.4,0.453,733.3,01.19,0.508
2016-09-23 03:33:00,1621E-3,5C000000,-0724,0827,12217,027.2,045.4,0.452,733.3,01.19,0.508
2016-09-23 03:34:00,1550E-3,5C000000,-0724,0827,12265,027.2,045.4,0.452,733.3,01.19,0.508
2016-09-23 03:35:00,1523E-3,5C000000,-0724,0826,12312,027.2,045.4,0.453,733.2,01.19,0.508
2016-09-23 03:36:00,1752E-3,5C000000,-0724,0826,12301,027.2,045.4,0.452,733.2,01.19,0.508
2016-09-23 03:37:00,1567E-3,5C000000,-0724,0826,12300,027.2,045.4,0.453,733.3,01.19,0.508
2016-09-23 03:38:00,1710E-3,5C000000,-0724,0826,12121,027.2,045.4,0.452,733.3,01.19,0.508
2016-09-23 03:39:00,1530E-3,5C000000,-0724,0826,12259,027.3,045.4,0.452,733.3,01.19,0.508
2016-09-23 03:40:00,1539E-3,5C000000,-0724,0826,12241,027.3,045.5,0.452,733.2,01.19,0.508
2016-09-23 03:41:00,1662E-3,5C000000,-0724,0826,12033,027.3,045.5,0.452,733.3,01.19,0.508
2016-09-23 03:42:00,1630E-3,5C000000,-0724,0826,12294,027.3,045.4,0.453,733.3,01.19,0.508
2016-09-23 03:43:00,1584E-3,5C000000,-0724,0826,12353,027.3,045.5,0.452,733.3,01.19,0.508
2016-09-23 03:44:00,1579E-3,5C000000,-0724,0826,12278,027.3,045.4,0.453,733.2,01.19,0.508
2016-09-23 03:45:00,1553E-3,5C000000,-0724,0827,12255,027.3,045.4,0.452,733.3,01.19,0.508
2016-09-23 03:46:00,1621E-3,5C000000,-0724,0826,12238,027.3,045.4,0.452,733.2,01.19,0.508
2016-09-23 03:47:00,1619E-3,5C000000,-0724,0827,12285,027.3,045.4,0.452,733.3,01.19,0.508
2016-09-23 03:48:00,1506E-3,5C000000,-0724,0826,12176,027.3,045.4,0.452,733.3,01.19,0.508
2016-09-23 03:49:00,1719E-3,5C000000,-0724,0825,12153,027.4,045.5,0.453,733.3,01.19,0.508
2016-09-23 03:50:00,1689E-3,5C000000,-0724,0826,12269,027.4,045.4,0.452,733.3,01.19,0.508
2016-09-23 03:51:00,1580E-3,5C000000,-0724,0826,12246,027.4,045.4,0.452,733.2,01.19,0.508
2016-09-23 03:52:00,1684E-3,5C000000,-0724,0826,12228,027.4,045.4,0.453,733.3,01.19,0.508
2016-09-23 03:53:00,1654E-3,5C000000,-0724,0826,12249,027.4,045.4,0.452,733.2,01.19,0.508
2016-09-23 03:54:00,1578E-3,5C000000,-0724,0827,12339,027.4,045.4,0.453,733.2,01.19,0.508
2016-09-23 03:55:00,1660E-3,5C000000,-0724,0827,12135,027.4,045.4,0.452,733.2,01.19,0.508
2016-09-23 03:56:00,1613E-3,5C000000,-0724,0826,12274,027.4,045.4,0.452,733.2,01.19,0.508
2016-09-23 03:57:00,1570E-3,5C000000,-0724,0826,12246,027.4,045.4,0.452,733.3,01.19,0.508
2016-09-23 03:58:00,1580E-3,5C000000,-0724,0825,12235,027.5,045.4,0.452,733.2,01.19,0.508
2016-09-23 03:59:00,1639E-3,5C000000,-0724,0828,12179,027.5,045.4,0.453,733.3,01.19,0.508
2016-09-23 04:00:00,1536E-3,5C000000,-0724,0827,12130,027.5,045.4,0.452,733.2,01.19,0.508
2016-09-23 04:01:00,1576E-3,5C000000,-0724,0826,12150,027.5,045.4,0.452,733.3,01.19,0.508
2016-09-23 04:02:00,1600E-3,5C000000,-0724,0827,12251,027.5,045.4,0.452,733.3,01.19,0.508
2016-09-23 04:03:00,1531E-3,5C000000,-0724,0828,12512,027.5,045.4,0.452,733.3,01.19,0.508
2016-09-23 04:04:00,1621E-3,5C000000,-0724,0826,12338,027.5,045.4,0.452,733.2,01.19,0.508
2016-09-23 04:05:00,1559E-3,5C000000,-0724,0826,12251,027.5,045.5,0.452,733.2,01.19,0.508
2016-09-23 04:06:00,1487E-3,5C000000,-0724,0826,12190,027.5,045.5,0.452,733.2,01.19,0.508
2016-09-23 04:07:00,1564E-3,5C000000,-0724,0826,12349,027.5,045.4,0.452,733.3,01.19,0.508
2016-09-23 04:08:00,1601E-3,5C000000,-0724,0826,12175,027.6,045.4,0.452,733.3,01.19,0.508
2016-09-23 04:09:00,1631E-3,5C000000,-0724,0826,12294,027.6,045.5,0.452,733.2,01.19,0.508
2016-09-23 04:10:00,1547E-3,5C000000,-0724,0826,12145,027.6,045.5,0.452,733.2,01.19,0.508
2016-09-23 04:11:00,1551E-3,5C000000,-0724,0826,12317,027.6,045.4,0.452,733.2,01.19,0.508
2016-09-23 04:12:00,1656E-3,5C000000,-0724,0826,12189,027.6,045.4,0.452,733.3,01.19,0.508
2016-09-23 04:13:00,1678E-3,5C000000,-0724,0826,12268,027.6,045.5,0.452,733.2,01.19,0.508
2016-09-23 04:14:00,1645E-3,5C000000,-0724,0826,12224,027.6,045.4,0.452,733.2,01.19,0.508
2016-09-23 04:15:00,1640E-3,5C000000,-0724,0826,12368,027.6,045.4,0.452,733.2,01.19,0.508
2016-09-23 04:16:00,1538E-3,5C000000,-0724,0826,12298,027.6,045.4,0.452,733.2,01.19,0.508
2016-09-23 04:17:00,1610E-3,5C000000,-0724,0826,12184,027.6,045.5,0.452,733.2,01.19,0.508
2016-09-23 04:18:00,1461E-3,5C000000,-0724,0826,12257,027.6,045.4,0.452,733.2,01.19,0.508
2016-09-23 04:19:00,1633E-3,5C000000,-0724,0826,12208,027.7,045.5,0.451,733.2,01.19,0.508
2016-09-23 04:20:00,1644E-3,5C000000,-0724,0827,12214,027.7,045.5,0.452,733.2,01.19,0.508